Location: Montreal
(45.5087°N, 73.5540°W)
Time: 01:48:59
(UTC-04:00)

Tiros 1 despin weight - All Passes

Search period start: 08 June 2026 00:00
Search period end: 18 June 2026 00:00
Orbit: 554 x 591 km, 48.2° (Epoch: 7 June)

Date Brightness Start Highest point End Pass type
(mag) Time Alt. Az. Time Alt. Az. Time Alt. Az.
8 Jun - 00:27:56 10° WNW 00:32:18 71° NNE 00:36:37 10° E visible
8 Jun - 02:08:37 10° WNW 02:12:46 44° SSW 02:16:50 10° SE visible
8 Jun - 19:28:55 10° SSW 19:32:22 23° SE 19:35:49 10° E daylight
8 Jun - 21:08:06 10° WSW 21:12:29 79° SSE 21:16:53 10° ENE visible
8 Jun - 22:48:52 10° W 22:53:13 60° N 22:57:32 10° ENE visible
9 Jun - 00:29:37 10° WNW 00:34:01 83° NNE 00:38:21 10° ESE visible
9 Jun - 02:10:26 10° W 02:14:18 32° SW 02:18:07 10° SSE visible
9 Jun - 19:29:58 10° SSW 19:33:52 32° SE 19:37:47 10° E daylight
9 Jun - 21:09:45 10° WSW 21:14:10 84° NNW 21:18:34 10° ENE visible
9 Jun - 22:50:37 10° WNW 22:54:57 60° N 22:59:17 10° E visible
10 Jun - 00:31:18 10° WNW 00:35:41 80° SSW 00:40:00 10° ESE visible
10 Jun - 02:12:23 10° W 02:15:47 22° SW 02:19:08 10° SSE visible
10 Jun - 19:31:13 10° SW 19:35:24 44° SSE 19:39:35 10° ENE daylight
10 Jun - 21:11:28 10° W 21:15:52 72° NNW 21:20:14 10° ENE visible
10 Jun - 22:52:20 10° WNW 22:56:42 63° N 23:01:02 10° E visible
11 Jun - 00:32:59 10° WNW 00:37:18 61° SSW 00:41:34 10° SE visible
11 Jun - 02:14:39 10° W 02:17:12 15° SW 02:19:46 10° S visible
11 Jun - 17:54:27 10° S 17:57:03 15° SE 17:59:39 10° E daylight
11 Jun - 19:32:38 10° SW 19:36:58 60° SSE 19:41:18 10° ENE daylight
11 Jun - 21:13:12 10° W 21:17:35 64° N 21:21:56 10° ENE visible
11 Jun - 22:54:01 10° WNW 22:58:25 71° NNE 23:02:46 10° E visible
12 Jun - 00:34:42 10° WNW 00:38:53 45° SSW 00:43:00 10° SE visible
12 Jun - 02:18:29 10° SW 02:18:35 10° SW 02:18:41 10° SW visible
12 Jun - 17:55:02 10° SSW 17:58:28 22° SE 18:01:54 10° E daylight
12 Jun - 19:34:11 10° WSW 19:38:35 79° SSE 19:42:59 10° ENE daylight
12 Jun - 21:14:56 10° W 21:19:18 60° N 21:23:38 10° ENE visible
12 Jun - 22:55:41 10° WNW 23:00:06 83° NNE 23:04:28 10° ESE visible
13 Jun - 00:36:30 10° W 00:40:24 32° SW 00:44:16 10° SSE visible
13 Jun - 17:56:02 10° SSW 17:59:55 31° SE 18:03:50 10° E daylight
13 Jun - 19:35:48 10° WSW 19:40:13 85° NNW 19:44:38 10° ENE daylight
13 Jun - 21:16:39 10° W 21:21:01 60° N 21:25:21 10° E visible
13 Jun - 22:57:20 10° WNW 23:01:45 81° SSW 23:06:06 10° ESE visible
14 Jun - 00:38:25 10° W 00:41:51 23° SW 00:45:16 10° SSE visible
14 Jun - 17:57:15 10° SW 18:01:25 44° SSE 18:05:37 10° ENE daylight
14 Jun - 19:37:29 10° W 19:41:53 72° NNW 19:46:17 10° ENE daylight
14 Jun - 21:18:20 10° WNW 21:22:43 63° N 21:27:05 10° E visible
14 Jun - 22:59:00 10° WNW 23:03:20 62° SSW 23:07:38 10° SE visible
15 Jun - 00:40:36 10° W 00:43:15 16° SW 00:45:54 10° S visible
15 Jun - 16:20:32 10° S 16:23:04 15° SE 16:25:37 10° E daylight
15 Jun - 17:58:39 10° SW 18:02:58 60° SSE 18:07:19 10° ENE daylight
15 Jun - 19:39:11 10° W 19:43:34 64° N 19:47:57 10° ENE daylight
15 Jun - 21:20:01 10° WNW 21:24:24 71° NNE 21:28:47 10° E visible
15 Jun - 23:00:41 10° WNW 23:04:53 46° SSW 23:09:03 10° SE visible
16 Jun - 00:43:53 10° WSW 00:44:36 10° SW 00:45:20 10° SW visible
16 Jun - 16:21:04 10° S 16:24:27 22° SE 16:27:51 10° E daylight
16 Jun - 18:00:09 10° WSW 18:04:33 78° SSE 18:08:57 10° ENE daylight
16 Jun - 19:40:53 10° W 19:45:15 60° N 19:49:37 10° ENE daylight
16 Jun - 21:21:38 10° WNW 21:26:04 82° NNE 21:30:27 10° ESE visible
16 Jun - 23:02:26 10° W 23:06:22 33° SW 23:10:17 10° SSE visible
17 Jun - 16:22:01 10° SSW 16:25:52 31° SE 16:29:46 10° E daylight
17 Jun - 18:01:45 10° WSW 18:06:09 85° NNW 18:10:35 10° ENE daylight
17 Jun - 19:42:35 10° W 19:46:57 60° N 19:51:18 10° E daylight
17 Jun - 21:23:16 10° WNW 21:27:41 81° SSW 21:32:03 10° ESE visible
17 Jun - 23:04:18 10° W 23:07:49 23° SW 23:11:17 10° SSE visible
